Curacao, Curacao

6:53 PM AST on September 20, 2017 (GMT -0400)
Willemstad-Hato International

Weather History for TNCC - March, 2014

Change the Weather History Date:

Thursday, March 27, 2014

  Actual Average Record
Temperature  
Mean Temperature 82 °F -  
Max Temperature 86 °F 86 °F 89 °F (1999)
Min Temperature 78 °F 76 °F 75 °F (1997)
Cooling Degree Days 17    
Growing Degree Days 32 (Base 50)    
Moisture  
Dew Point 73 °F    
Average Humidity 77    
Maximum Humidity 84    
Minimum Humidity 61    
Precipitation  
Precipitation 0.00 in 0.02 in - ()
Sea Level Pressure  
Sea Level Pressure 30.00 in    
Wind  
Wind Speed 12 mph ()    
Max Wind Speed 18 mph    
Max Gust Speed -    
Visibility 8.6 miles    
Events Rain    
Averages and records for this station are not official NWS values.
T = Trace of Precipitation, MM = Missing Value Source: Averaged Metar Reports

Daily Weather History Graph

Daily Weather History Graph

Search for Another Location

Airport or City:

Trip Planner

Search our weather history database for the weather conditions in past years. The results will help you decide how hot, cold, wet, or windy it might be!

Date:

Astronomy

Mar. 27, 2014 Rise Set
Actual Time 6:35 AM AST 6:46 PM AST
Civil Twilight 6:14 AM AST 7:08 PM AST
Nautical Twilight 5:49 AM AST 7:32 PM AST
Astronomical Twilight 5:25 AM AST 7:57 PM AST
Moon 3:50 AM AST (3/27) 3:59 PM AST (3/27)
Length of Visible Light 12h 53m
Length of Day
12h 11m
Waning Crescent, 13% of the Moon is Illuminated
Mar 27
Waning Crescent
Mar 30
New
Apr 7
First Quarter
Apr 15
Full
Apr 22
Last Quarter

Hourly Weather History & Observations

Time (AST) Temp. Heat Index Dew Point Humidity Pressure Visibility Wind Dir Wind Speed Gust Speed Precip Events Conditions
12:00 AM 78.8 °F - 73.4 °F 83% 30.01 in 6.2 mi East 13.8 mph - N/A   Partly Cloudy
1:00 AM 78.8 °F - 73.4 °F 83% 30.01 in 6.2 mi East 12.7 mph - N/A   Partly Cloudy
2:00 AM 79 °F - 73 °F 78% 30.00 in 16 mi East 12.7 mph - -   Scattered Clouds
2:00 AM 78.8 °F - 73.4 °F 83% 30.01 in 6.2 mi East 12.7 mph - N/A   Partly Cloudy
3:00 AM 78.8 °F - 73.4 °F 83% 29.98 in 6.2 mi East 12.7 mph - N/A   Partly Cloudy
4:00 AM 78.8 °F - 73.4 °F 83% 29.98 in 6.2 mi East 11.5 mph - N/A   Partly Cloudy
5:00 AM 78 °F - 73 °F 80% 29.98 in 16 mi East 12.7 mph - -   Partly Cloudy
5:00 AM 78.8 °F - 73.4 °F 83% 29.98 in 6.2 mi East 13.8 mph - N/A   Scattered Clouds
6:00 AM 78.8 °F - 73.4 °F 83% 29.98 in 6.2 mi ESE 12.7 mph - N/A   Partly Cloudy
7:00 AM 78.8 °F - 73.4 °F 83% 30.01 in 6.2 mi East 13.8 mph - N/A   Scattered Clouds
8:00 AM 81 °F - 73 °F 72% 30.03 in 16 mi East 13.8 mph - -   Mostly Cloudy
8:00 AM 80.6 °F 85.4 °F 73.4 °F 79% 30.01 in 6.2 mi East 13.8 mph - N/A   Mostly Cloudy
9:00 AM 82.4 °F 88.2 °F 73.4 °F 74% 30.04 in 6.2 mi East 13.8 mph - N/A   Scattered Clouds
10:00 AM 84.2 °F 90.9 °F 73.4 °F 70% 30.06 in 6.2 mi East 13.8 mph - N/A   Partly Cloudy
11:00 AM 85 °F - 73 °F 61% 30.06 in 16 mi East 13.8 mph - -   Scattered Clouds
11:00 AM 84.2 °F 90.9 °F 73.4 °F 70% 30.04 in 6.2 mi East 15.0 mph - N/A   Partly Cloudy
12:00 PM 84.2 °F 90.9 °F 73.4 °F 70% 30.04 in 6.2 mi East 16.1 mph - N/A   Scattered Clouds
1:00 PM 86.0 °F 93.4 °F 73.4 °F 66% 30.01 in 6.2 mi East 13.8 mph - N/A   Scattered Clouds
2:00 PM 82 °F - 76 °F 76% 29.99 in 16 mi East 13.8 mph - -   Mostly Cloudy
2:00 PM 80.6 °F 86.2 °F 75.2 °F 84% 29.98 in 6.2 mi East 15.0 mph - N/A   Scattered Clouds
3:00 PM 80.6 °F 85.4 °F 73.4 °F 79% 29.95 in 6.2 mi East 16.1 mph - N/A   Scattered Clouds
4:00 PM 82.4 °F 88.2 °F 73.4 °F 74% 29.95 in 6.2 mi East 18.4 mph - N/A   Partly Cloudy
5:00 PM 82 °F - 72 °F 65% 29.95 in 16 mi East 16.1 mph - -   Partly Cloudy
5:00 PM 82.4 °F 87.2 °F 71.6 °F 70% 29.95 in 6.2 mi East 17.3 mph - N/A   Partly Cloudy
6:00 PM 80.6 °F 84.6 °F 71.6 °F 74% 29.95 in 6.2 mi East 16.1 mph - N/A   Scattered Clouds
7:00 PM 78.8 °F - 71.6 °F 78% 29.95 in 6.2 mi ESE 15.0 mph - N/A   Scattered Clouds
8:00 PM 79 °F - 73 °F 76% 29.99 in 16 mi East 15.0 mph - -   Partly Cloudy
8:00 PM 78.8 °F - 73.4 °F 83% 29.98 in 6.2 mi East 15.0 mph - N/A   Scattered Clouds
9:00 PM 78.8 °F - 71.6 °F 78% 30.01 in 6.2 mi East 12.7 mph - N/A   Scattered Clouds
10:00 PM 78.8 °F - 73.4 °F 83% 30.01 in 6.2 mi East 12.7 mph - N/A Rain Light Rain Showers
11:00 PM 80 °F - 72 °F 69% 30.02 in 16 mi East 15.0 mph - -   Scattered Clouds
11:00 PM 78.8 °F - 71.6 °F 78% 30.01 in 6.2 mi East 15.0 mph - N/A   Partly Cloudy